Weather History for Lancaster, CA

Change the Weather History Date:

Saturday, August 16, 2014

  Actual Average Record
Temperature  
Mean Temperature 82 °F 81 °F  
Max Temperature 99 °F 98 °F 107 °F (2002)
Min Temperature 64 °F 64 °F 46 °F (1987)
Degree Days  
Heating Degree Days 0    
Month to date heating degree days 0  
Since 1 June heating degree days 0  
Since 1 July heating degree days 0  
Cooling Degree Days 17    
Month to date cooling degree days 255  
Year to date cooling degree days 1442  
Since 1 June cooling degree days 1242  
Growing Degree Days 32 (Base 50)    
Moisture  
Dew Point 42 °F    
Average Humidity 27    
Maximum Humidity 41    
Minimum Humidity 13    
Precipitation  
Precipitation 0.00 in 0.01 in 1.80 in (1983)
Month to date precipitation 0.03 0.05  
Year to date precipitation 2.35 5.05  
Since 1 July precipitation 0.03 0.14  
Snow  
Snow 0.00 in - 0.00 in ()
Month to date snowfall 0.0  
Since 1 June snowfall 0.0  
Since 1 July snowfall 0.0  
Snow Depth 0.00 in    
Sea Level Pressure  
Sea Level Pressure 29.97 in    
Wind  
Wind Speed 11 mph (WSW)    
Max Wind Speed 22 mph    
Max Gust Speed 26 mph    
Visibility 10 miles    
Events      
T = Trace of Precipitation, MM = Missing Value Source: NWS Daily Summary

Daily Weather History Graph

Daily Weather History Graph

Search for Another Location

Airport:

Trip Planner

Search our weather history database for the weather conditions in past years. The results will help you decide how hot, cold, wet, or windy it might be!

Date:

Astronomy

Aug. 16, 2014 Rise Set
Actual Time 6:14 AM PDT 7:39 PM PDT
Civil Twilight 5:47 AM PDT 8:06 PM PDT
Nautical Twilight 5:15 AM PDT 8:37 PM PDT
Astronomical Twilight 4:42 AM PDT 9:11 PM PDT
Moon 11:44 PM PDT (8/16) 12:47 PM PDT (8/16)
Length of Visible Light 14h 18m
Length of Day
13h 25m
Waning Gibbous, 58% of the Moon is Illuminated
Aug 16
Waning Gibbous
Aug 17
Last Quarter
Aug 25
New
Sep 2
First Quarter
Sep 8
Full

Hourly Weather History & Observations

Time (PDT) Temp. Dew Point Humidity Pressure Visibility Wind Dir Wind Speed Gust Speed Precip Events Conditions
12:56 AM 73.9 °F 44.1 °F 34% 29.98 in 10.0 mi West 9.2 mph - N/A   Clear
1:56 AM 72.0 °F 42.1 °F 34% 29.98 in 10.0 mi WSW 8.1 mph - N/A   Clear
2:56 AM 69.1 °F 43.0 °F 39% 29.98 in 10.0 mi West 8.1 mph - N/A   Clear
3:56 AM 70.0 °F 45.0 °F 41% 29.98 in 10.0 mi WNW 10.4 mph - N/A   Clear
4:56 AM 66.0 °F 39.9 °F 38% 29.99 in 10.0 mi North 3.5 mph - N/A   Clear
5:56 AM 72.0 °F 46.0 °F 40% 29.98 in 10.0 mi WSW 13.8 mph - N/A   Clear
6:56 AM 73.9 °F 45.0 °F 35% 30.00 in 10.0 mi WNW 8.1 mph - N/A   Clear
7:56 AM 75.9 °F 39.0 °F 26% 30.02 in 10.0 mi Calm Calm - N/A   Clear
8:56 AM 82.9 °F 45.0 °F 26% 30.02 in 10.0 mi ENE 3.5 mph - N/A   Clear
9:56 AM 89.1 °F 44.1 °F 21% 30.01 in 10.0 mi WSW 10.4 mph - N/A   Clear
10:56 AM 91.0 °F 43.0 °F 19% 30.01 in 10.0 mi WSW 5.8 mph - N/A   Clear
11:56 AM 93.0 °F 42.1 °F 17% 29.99 in 10.0 mi Variable 3.5 mph - N/A   Clear
12:56 PM 95.0 °F 39.9 °F 15% 29.98 in 10.0 mi SW 8.1 mph 17.3 mph N/A   Clear
1:56 PM 97.0 °F 39.0 °F 13% 29.96 in 10.0 mi South 6.9 mph 18.4 mph N/A   Clear
2:56 PM 98.1 °F 39.9 °F 13% 29.94 in 10.0 mi WSW 21.9 mph - N/A   Clear
3:56 PM 98.1 °F 42.1 °F 15% 29.92 in 10.0 mi WSW 18.4 mph 24.2 mph N/A   Clear
4:56 PM 96.1 °F 43.0 °F 16% 29.92 in 10.0 mi SW 19.6 mph 26.5 mph N/A   Clear
5:56 PM 93.9 °F 44.1 °F 18% 29.91 in 10.0 mi SW 19.6 mph 26.5 mph N/A   Clear
6:56 PM 91.0 °F 45.0 °F 20% 29.91 in 10.0 mi WSW 17.3 mph - N/A   Clear
7:56 PM 84.9 °F 44.1 °F 24% 29.94 in 10.0 mi WSW 17.3 mph - N/A   Clear
8:56 PM 82.9 °F 43.0 °F 24% 29.94 in 10.0 mi WSW 13.8 mph - N/A   Clear
9:56 PM 81.0 °F 41.0 °F 24% 29.95 in 10.0 mi WSW 12.7 mph - N/A   Clear
10:56 PM 78.1 °F 37.9 °F 24% 29.95 in 10.0 mi WSW 10.4 mph - N/A   Clear
11:56 PM 79.0 °F 37.0 °F 22% 29.94 in 10.0 mi WSW 10.4 mph - N/A   Clear